sat.trackr.live / text

‹ back to catalog

STARLINK-37412

NORAD 69248 · 2026-117L

PAYLOAD ACTIVE UNKNOWN

§ Identity

Operator
Country
US
Launch date
2026-05-29
Launch site
AFETR
Launch vehicle
Mass (kg)
RCS (m²)

Purposes: comms

External: N2YO · Heavens-Above · Gunter

§ Orbital elements

Epoch: 2026-09-19T22:40:18.388128Z

Period
93.85 min
Inclination
53.1563°
Eccentricity
0.0001636
Mean motion
15.34388542 rev/d
Perigee alt
461.6 km
Apogee alt
463.9 km
Semi-major
6,840.9 km
B*
6.4085e-4
RAAN
156.2007°
Arg perigee
99.8175°
Mean anomaly
260.3012°
Rev number
1,758

§ Raw data

STARLINK-374121 69248U 26117L   26262.94465727  .00021330  00000+0  64085-3 0  99922 69248  53.1563 156.2007 0001636  99.8175 260.3012 15.34388542 17588

JSON: /api/v1/satellites/69248 · /tle

For live sub-satellite position, see the globe view (requires WebGL).

§ Visibility from observer

Set your observer location to see the next 7 days of passes ≥ 10°. The values pass through the URL so the page stays shareable.

No JS? Fill the form by hand. The geolocation button needs JavaScript.